User: anonymous   Login
Location: Prairie State College
(41.5244°N, 87.6382°W)
Time: 19:11:19
(UTC-05:00)
Language:

MSX - Orbit

View from above orbital plane
View from above orbital plane
View from above satellite
View from above satellite

Ground track
Ground track

The orbit data is extracted from the following two-line orbital elements,

1 23851U 96024A   16257.64352661 0.00000000  00000-0  00000-0 0    07
2 23851  98.6798 272.5287 0007004  15.4211 344.5788 13.98043938    03
Epoch (UTC): 13 September 2016 15:26:40
Eccentricity: 0.0007004
inclination: 98.6798°
perigee height: 895 km
apogee height: 905 km
right ascension of ascending node: 272.5287°
argument of perigee: 15.4211°
revolutions per day: 13.98043938
mean anomaly at epoch: 344.5788°
orbit number at epoch: 0

The dashed part of the orbit path shows where the satellite is in the earth's shadow,  

DLR